SCP
-0 0 0 0 0 0 0 0 0 0 0 0 0 0 0 0 0 0 0 0 0 0 0 0 0 0 0 0 0 0 0 0 0 0 0 0 0 0
-0 -0 0 0 0 0 0 0 0 -0 -0 -0 0 0 0 -0 0 0 0 0 0 0 0 0 0 0 0 0 0 0 0 0 0 0 0 0 0 0
-0 0 0 0 0 0 -0 0 0 0 0 0 -0 -0 0 0 0 0 0 0 0 0 0 0 0 0 0 0 0 0 0 0 0 0 0 0 0 0
-0 -0 0 -0 -0 -0 -0 0 0 0 -0 -0 -0 -0 -0 0 0 0 0 0 0 0 0 0 0 0 0 0 0 0 0 0 0 0 0 0 0 0
-0 -0 -0 -0 -0 -0 0 0 0 0 0 -0 -0 -0 -0 0 0 1 1 1 1 1 1 0 0 0 0 0 0 0 0 0 0 0 0 0 0 0
0 0 -0 -0 -0 -0 0 0 0 0 0 -0 -0 -0 0 0 1 0 1 2 2 2 2 2 1 0 0 0 0 0 0 0 0 0 0 0 0 0
0 0 0 -0 -0 0 0 0 0 0 0 0 -0 -0 0 0 1 0 1 2 3 7 3 3 3 3 2 0 0 0 0 0 0 0 0 0 0 0
-0 -0 0 -0 0 0 0 0 0 0 -0 -0 -0 -0 -0 0 0 1 1 1 2 5 3 3 3 2 1 1 0 0 0 0 0 0 -0 0 0 0
-0 -0 -0 0 0 0 0 -0 0 -0 -0 -1 -1 -1 -1 0 1 1 2 2 3 2 3 4 3 2 2 1 0 0 0 0 0 0 0 -0 0 0
-0 0 -0 0 0 0 0 0 0 0 -0 -0 -0 -0 -0 0 1 2 3 2 2 2 3 4 2 2 0 0 0 0 0 0 0 0 0 0 0 0
0 0 0 -0 -0 0 -0 0 -0 0 -0 -0 -0 -0 0 0 0 1 1 2 2 4 2 2 1 0 0 0 0 0 0 0 -0 0 0 -0 -0 -0
-0 -0 -0 -0 0 0 -0 -0 0 -0 -0 -0 0 0 0 1 1 2 2 3 3 3 2 2 0 0 0 0 0 0 -0 -0 0 0 -0 -0 -0 -0
0 -0 -0 0 -0 0 0 0 0 0 0 0 1 1 2 3 2 3 3 3 3 4 2 1 0 0 0 0 0 0 0 0 0 0 -0 -0 0 -0
0 0 -0 0 0 0 0 0 0 -0 0 1 2 3 2 2 2 3 3 3 2 2 1 0 0 0 0 0 0 0 0 0 0 -0 0 -0 -0 0
-0 -0 0 0 0 0 0 0 0 1 1 2 2 2 2 3 5 2 1 1 0 0 0 0 0 0 0 0 0 0 0 0 0 0 0 0 0 0
0 -0 -0 0 0 0 1 0 1 1 2 2 2 2 4 4 3 2 1 1 0 0 0 0 0 0 0 0 0 0 0 0 0 0 0 0 0 0
1 1 1 2 2 2 2 2 2 2 2 3 3 4 3 2 2 1 1 0 0 0 0 0 0 0 0 0 0 0 0 0 0 0 0 0 0 0
1 2 3 4 3 2 2 2 2 3 3 3 3 3 3 2 2 1 1 0 1 0 0 0 0 0 0 0 0 0 0 0 0 0 0 0 0 0
3 4 4 4 3 3 3 3 3 3 3 3 2 2 2 2 1 1 1 0 0 0 0 0 0 0 0 0 0 0 0 0 0 0 0 0 0 0
4 4 4 4 3 4 4 3 4 4 3 2 2 2 2 2 1 1 0 0 0 0 0 0 0 0 0 0 0 0 0 0 0 0 0 0 0 0
5 4 4 4 4 4 5 4 4 3 2 2 2 2 2 2 1 0 0 0 0 0 0 0 0 0 0 0 0 0 0 0 0 0 0 0 0 0
4 3 3 3 5 5 5 4 3 2 1 2 2 2 2 1 1 0 0 0 0 0 0 0 0 0 0 0 0 0 0 0 0 0 0 0 0 0
3 2 3 4 3 4 3 2 1 1 1 2 2 2 2 1 1 1 0 0 0 0 0 0 0 0 0 0 0 0 0 0 0 0 0 0 0 0
Wind_Speed_500mb
14 16 14 14 16 16 17 16 16 18 16 13 12 17 18 18 24 29 34 35 36 38 43 45 50 50 47 48 45 44 41 38 32 26 20 16 18 15
16 22 19 18 19 18 19 20 21 23 28 18 22 27 32 33 33 40 42 45 52 50 49 52 53 57 61 63 60 55 49 46 41 35 28 27 20 15
24 25 23 21 20 21 22 22 24 25 32 31 28 32 45 51 50 49 52 56 53 58 56 54 57 61 65 68 72 69 61 55 50 45 48 33 21 24
28 29 28 24 29 27 27 31 30 32 34 47 40 39 42 45 62 68 61 52 47 47 61 62 58 61 65 69 71 77 76 69 63 61 56 41 26 29
33 32 32 30 32 31 32 31 31 33 36 41 49 45 45 45 47 50 47 47 49 52 58 61 59 58 57 61 71 75 78 82 79 77 66 51 31 32
38 37 36 36 37 36 35 37 37 39 39 44 47 47 46 44 44 45 47 47 52 53 55 52 49 62 70 62 51 62 78 82 88 89 74 53 39 28
47 46 44 46 46 43 37 37 39 39 42 46 51 52 52 48 46 54 58 60 58 57 53 56 49 67 73 61 46 44 48 63 75 93 78 55 35 30
59 57 56 57 57 54 54 53 54 57 61 58 59 61 67 60 55 59 62 65 61 44 52 64 68 64 49 58 50 39 33 35 42 76 80 54 36 25
66 65 62 51 56 61 61 61 64 64 69 73 84 84 85 68 56 55 54 55 57 63 63 72 55 58 49 51 56 49 29 16 29 45 58 53 31 37
74 75 74 72 71 71 71 70 70 71 71 73 80 82 73 60 54 55 54 57 60 65 62 57 55 35 59 49 47 22 6 7 9 41 48 34 36 42
76 76 77 78 74 71 72 76 78 80 72 75 77 72 67 60 48 49 52 50 61 66 58 55 60 56 36 35 30 12 18 47 53 39 29 42 48 44
74 75 75 76 72 69 70 70 76 73 66 60 55 57 59 50 40 47 50 53 56 58 56 55 47 40 12 20 32 42 49 43 35 25 45 44 40 42
60 58 58 65 63 62 63 67 71 64 60 61 57 50 37 37 36 41 45 48 46 51 58 54 41 22 5 12 13 13 11 40 35 45 41 37 40 34
65 52 50 58 62 53 54 60 60 56 61 57 52 57 54 50 44 41 43 42 51 53 50 35 26 6 9 12 11 16 24 37 43 39 42 39 46 38
66 51 54 59 62 61 61 61 57 60 62 59 57 47 36 37 44 46 45 48 51 40 22 16 10 16 9 7 17 25 36 41 41 42 39 46 47 39
69 71 70 70 66 63 64 64 64 63 55 52 51 38 44 47 50 49 47 45 38 18 12 11 16 17 10 15 19 39 41 35 44 34 37 34 31 27
58 62 64 68 73 73 70 65 58 59 61 63 62 59 57 55 54 47 47 35 17 16 15 18 16 18 22 13 22 37 35 25 38 39 39 33 28 26
44 45 52 60 62 60 60 58 56 58 60 60 62 62 58 53 49 43 39 22 19 24 19 19 21 20 25 31 29 30 33 36 39 44 37 32 28 27
57 53 55 59 55 50 50 50 51 51 52 54 53 52 51 49 49 32 26 22 24 24 24 25 26 28 31 29 36 44 36 40 39 37 35 30 28 29
65 66 65 62 58 45 42 47 49 50 49 48 48 49 51 52 46 33 30 28 28 27 30 31 33 35 31 30 32 45 48 40 37 35 36 30 36 38
50 53 51 48 47 44 43 47 49 52 51 49 49 53 55 41 36 33 34 38 35 32 35 38 41 37 35 27 31 39 59 49 39 34 36 33 29 34
48 49 47 47 51 55 52 54 56 54 53 51 51 47 42 35 37 33 34 35 41 38 38 33 50 42 37 40 35 33 43 58 54 49 47 35 32 33
51 47 48 45 43 47 58 56 55 50 44 45 47 39 36 35 37 35 37 35 32 39 40 41 41 42 41 41 37 34 37 43 53 54 50 45 49 41
Wind_Direction_500mb
239 237 228 238 253 256 260 261 268 284 285 276 268 261 259 285 287 298 300 301 294 285 285 281 280 276 275 274 269 266 262 256 256 258 266 288 307 308
235 242 238 236 246 257 255 257 258 265 277 269 279 277 273 290 293 297 298 297 295 293 290 288 285 281 276 271 267 262 258 252 249 246 239 246 275 273
235 237 246 247 245 249 258 259 259 264 273 280 279 282 291 300 298 296 300 301 298 298 298 293 288 283 280 277 270 262 256 250 246 240 241 249 270 262
245 243 248 250 261 257 252 254 256 261 270 281 283 287 293 293 301 304 306 303 292 284 283 294 289 281 275 272 272 267 257 249 242 237 236 245 260 250
247 246 250 251 254 253 254 256 266 274 277 280 287 290 289 288 289 295 300 297 303 310 312 307 302 295 292 277 263 260 256 250 241 236 229 232 256 252
247 249 248 249 256 259 262 262 265 268 273 278 283 289 292 296 295 300 303 303 301 299 298 293 303 295 317 310 292 267 253 245 241 237 225 220 238 246
249 252 255 256 258 264 259 264 262 269 275 279 282 287 289 293 291 296 301 304 303 297 301 307 302 314 316 319 315 302 281 255 243 238 227 217 225 232
253 255 258 258 263 262 261 262 263 269 273 275 278 282 285 292 295 295 296 300 300 307 312 311 317 318 317 317 319 315 298 289 274 246 225 204 211 220
258 259 259 257 264 267 265 264 263 265 269 277 280 281 286 290 291 293 294 293 300 305 313 316 326 316 315 313 310 316 302 296 299 251 199 197 209 207
256 260 263 263 261 263 269 271 272 272 273 275 279 286 292 297 293 293 289 296 303 309 319 311 329 315 324 320 314 304 337 10 161 179 178 200 198 176
257 258 260 263 264 265 266 267 269 272 274 277 281 285 288 294 294 287 295 303 310 314 319 326 327 330 326 346 353 57 110 128 140 150 161 173 172 176
256 258 259 260 261 262 263 265 267 270 274 273 275 282 287 293 286 278 289 297 303 310 313 318 316 330 357 30 75 98 117 133 158 169 166 174 176 177
248 251 257 262 260 260 263 264 265 271 271 275 276 279 276 273 275 279 288 295 296 297 304 306 304 324 301 148 109 118 108 140 156 161 164 173 178 172
243 247 252 257 262 260 257 259 263 265 265 266 266 268 272 283 287 288 285 285 293 296 296 287 284 296 137 155 170 166 169 169 164 165 172 182 180 177
242 241 238 245 257 258 256 257 258 258 260 261 266 275 272 274 279 287 291 298 303 305 285 268 234 159 157 189 191 165 157 163 172 179 185 181 181 191
242 247 250 253 253 254 256 256 256 257 258 262 267 267 267 273 276 284 287 298 299 279 259 178 161 166 171 203 184 170 172 170 176 175 171 176 186 191
246 250 250 251 252 255 256 255 253 259 259 262 264 268 267 273 270 277 282 292 265 246 217 200 196 178 167 191 163 171 158 173 173 173 170 183 192 196
244 239 248 251 257 260 262 263 261 260 262 262 260 262 261 262 263 268 277 258 217 226 203 206 198 179 167 166 171 174 176 177 179 189 178 189 195 202
240 247 248 259 260 262 264 265 265 265 265 260 258 255 252 251 255 249 248 226 213 213 207 207 196 187 180 180 181 176 184 183 189 188 192 198 208 214
242 246 253 256 260 254 253 260 266 264 262 256 253 246 242 248 251 239 224 215 213 213 210 210 202 190 197 197 195 192 183 191 193 196 198 202 210 212
247 251 251 251 249 251 251 257 263 264 258 253 252 244 246 232 240 231 227 218 213 218 211 218 200 189 209 189 186 196 200 198 199 204 201 204 219 223
247 249 256 255 252 247 252 260 264 264 258 248 241 242 237 230 226 221 216 220 223 221 214 216 197 194 202 197 197 200 198 211 215 214 214 211 217 220
247 247 249 249 250 248 254 257 262 262 251 244 231 227 225 225 222 219 224 218 217 211 205 205 205 202 206 203 202 208 205 211 215 218 223 228 218 220
Wind_Speed_850mb
14 16 14 14 16 16 17 16 16 18 16 13 12 17 18 18 24 29 34 35 36 38 43 45 50 50 47 48 45 44 41 38 32 26 20 16 18 15
16 22 19 18 19 18 19 20 21 23 28 18 22 27 32 33 33 40 42 45 52 50 49 52 53 57 61 63 60 55 49 46 41 35 28 27 20 15
24 25 23 21 20 21 22 22 24 25 32 31 28 32 45 51 50 49 52 56 53 58 56 54 57 61 65 68 72 69 61 55 50 45 48 33 21 24
28 29 28 24 29 27 27 31 30 32 34 47 40 39 42 45 62 68 61 52 47 47 61 62 58 61 65 69 71 77 76 69 63 61 56 41 26 29
33 32 32 30 32 31 32 31 31 33 36 41 49 45 45 45 47 50 47 47 49 52 58 61 59 58 57 61 71 75 78 82 79 77 66 51 31 32
38 37 36 36 37 36 35 37 37 39 39 44 47 47 46 44 44 45 47 47 52 53 55 52 49 62 70 62 51 62 78 82 88 89 74 53 39 28
47 46 44 46 46 43 37 37 39 39 42 46 51 52 52 48 46 54 58 60 58 57 53 56 49 67 73 61 46 44 48 63 75 93 78 55 35 30
59 57 56 57 57 54 54 53 54 57 61 58 59 61 67 60 55 59 62 65 61 44 52 64 68 64 49 58 50 39 33 35 42 76 80 54 36 25
66 65 62 51 56 61 61 61 64 64 69 73 84 84 85 68 56 55 54 55 57 63 63 72 55 58 49 51 56 49 29 16 29 45 58 53 31 37
74 75 74 72 71 71 71 70 70 71 71 73 80 82 73 60 54 55 54 57 60 65 62 57 55 35 59 49 47 22 6 7 9 41 48 34 36 42
76 76 77 78 74 71 72 76 78 80 72 75 77 72 67 60 48 49 52 50 61 66 58 55 60 56 36 35 30 12 18 47 53 39 29 42 48 44
74 75 75 76 72 69 70 70 76 73 66 60 55 57 59 50 40 47 50 53 56 58 56 55 47 40 12 20 32 42 49 43 35 25 45 44 40 42
60 58 58 65 63 62 63 67 71 64 60 61 57 50 37 37 36 41 45 48 46 51 58 54 41 22 5 12 13 13 11 40 35 45 41 37 40 34
65 52 50 58 62 53 54 60 60 56 61 57 52 57 54 50 44 41 43 42 51 53 50 35 26 6 9 12 11 16 24 37 43 39 42 39 46 38
66 51 54 59 62 61 61 61 57 60 62 59 57 47 36 37 44 46 45 48 51 40 22 16 10 16 9 7 17 25 36 41 41 42 39 46 47 39
69 71 70 70 66 63 64 64 64 63 55 52 51 38 44 47 50 49 47 45 38 18 12 11 16 17 10 15 19 39 41 35 44 34 37 34 31 27
58 62 64 68 73 73 70 65 58 59 61 63 62 59 57 55 54 47 47 35 17 16 15 18 16 18 22 13 22 37 35 25 38 39 39 33 28 26
44 45 52 60 62 60 60 58 56 58 60 60 62 62 58 53 49 43 39 22 19 24 19 19 21 20 25 31 29 30 33 36 39 44 37 32 28 27
57 53 55 59 55 50 50 50 51 51 52 54 53 52 51 49 49 32 26 22 24 24 24 25 26 28 31 29 36 44 36 40 39 37 35 30 28 29
65 66 65 62 58 45 42 47 49 50 49 48 48 49 51 52 46 33 30 28 28 27 30 31 33 35 31 30 32 45 48 40 37 35 36 30 36 38
50 53 51 48 47 44 43 47 49 52 51 49 49 53 55 41 36 33 34 38 35 32 35 38 41 37 35 27 31 39 59 49 39 34 36 33 29 34
48 49 47 47 51 55 52 54 56 54 53 51 51 47 42 35 37 33 34 35 41 38 38 33 50 42 37 40 35 33 43 58 54 49 47 35 32 33
51 47 48 45 43 47 58 56 55 50 44 45 47 39 36 35 37 35 37 35 32 39 40 41 41 42 41 41 37 34 37 43 53 54 50 45 49 41
Wind_Direction_850mb
239 237 228 238 253 256 260 261 268 284 285 276 268 261 259 285 287 298 300 301 294 285 285 281 280 276 275 274 269 266 262 256 256 258 266 288 307 308
235 242 238 236 246 257 255 257 258 265 277 269 279 277 273 290 293 297 298 297 295 293 290 288 285 281 276 271 267 262 258 252 249 246 239 246 275 273
235 237 246 247 245 249 258 259 259 264 273 280 279 282 291 300 298 296 300 301 298 298 298 293 288 283 280 277 270 262 256 250 246 240 241 249 270 262
245 243 248 250 261 257 252 254 256 261 270 281 283 287 293 293 301 304 306 303 292 284 283 294 289 281 275 272 272 267 257 249 242 237 236 245 260 250
247 246 250 251 254 253 254 256 266 274 277 280 287 290 289 288 289 295 300 297 303 310 312 307 302 295 292 277 263 260 256 250 241 236 229 232 256 252
247 249 248 249 256 259 262 262 265 268 273 278 283 289 292 296 295 300 303 303 301 299 298 293 303 295 317 310 292 267 253 245 241 237 225 220 238 246
249 252 255 256 258 264 259 264 262 269 275 279 282 287 289 293 291 296 301 304 303 297 301 307 302 314 316 319 315 302 281 255 243 238 227 217 225 232
253 255 258 258 263 262 261 262 263 269 273 275 278 282 285 292 295 295 296 300 300 307 312 311 317 318 317 317 319 315 298 289 274 246 225 204 211 220
258 259 259 257 264 267 265 264 263 265 269 277 280 281 286 290 291 293 294 293 300 305 313 316 326 316 315 313 310 316 302 296 299 251 199 197 209 207
256 260 263 263 261 263 269 271 272 272 273 275 279 286 292 297 293 293 289 296 303 309 319 311 329 315 324 320 314 304 337 10 161 179 178 200 198 176
257 258 260 263 264 265 266 267 269 272 274 277 281 285 288 294 294 287 295 303 310 314 319 326 327 330 326 346 353 57 110 128 140 150 161 173 172 176
256 258 259 260 261 262 263 265 267 270 274 273 275 282 287 293 286 278 289 297 303 310 313 318 316 330 357 30 75 98 117 133 158 169 166 174 176 177
248 251 257 262 260 260 263 264 265 271 271 275 276 279 276 273 275 279 288 295 296 297 304 306 304 324 301 148 109 118 108 140 156 161 164 173 178 172
243 247 252 257 262 260 257 259 263 265 265 266 266 268 272 283 287 288 285 285 293 296 296 287 284 296 137 155 170 166 169 169 164 165 172 182 180 177
242 241 238 245 257 258 256 257 258 258 260 261 266 275 272 274 279 287 291 298 303 305 285 268 234 159 157 189 191 165 157 163 172 179 185 181 181 191
242 247 250 253 253 254 256 256 256 257 258 262 267 267 267 273 276 284 287 298 299 279 259 178 161 166 171 203 184 170 172 170 176 175 171 176 186 191
246 250 250 251 252 255 256 255 253 259 259 262 264 268 267 273 270 277 282 292 265 246 217 200 196 178 167 191 163 171 158 173 173 173 170 183 192 196
244 239 248 251 257 260 262 263 261 260 262 262 260 262 261 262 263 268 277 258 217 226 203 206 198 179 167 166 171 174 176 177 179 189 178 189 195 202
240 247 248 259 260 262 264 265 265 265 265 260 258 255 252 251 255 249 248 226 213 213 207 207 196 187 180 180 181 176 184 183 189 188 192 198 208 214
242 246 253 256 260 254 253 260 266 264 262 256 253 246 242 248 251 239 224 215 213 213 210 210 202 190 197 197 195 192 183 191 193 196 198 202 210 212
247 251 251 251 249 251 251 257 263 264 258 253 252 244 246 232 240 231 227 218 213 218 211 218 200 189 209 189 186 196 200 198 199 204 201 204 219 223
247 249 256 255 252 247 252 260 264 264 258 248 241 242 237 230 226 221 216 220 223 221 214 216 197 194 202 197 197 200 198 211 215 214 214 211 217 220
247 247 249 249 250 248 254 257 262 262 251 244 231 227 225 225 222 219 224 218 217 211 205 205 205 202 206 203 202 208 205 211 215 218 223 228 218 220